Weather History for KBTV - July, 2013

Change the Weather History Date:

Wednesday, July 10, 2013

  Actual Average Record
Temperature  
Mean Temperature 77 °F 71 °F  
Max Temperature 83 °F 81 °F 96 °F (1911)
Min Temperature 71 °F 60 °F 45 °F (1942)
Degree Days  
Heating Degree Days 0 0  
Month to date heating degree days 0 8  
Since 1 June heating degree days 65 81  
Since 1 July heating degree days 0 8  
Cooling Degree Days 12 6  
Month to date cooling degree days 105 60  
Year to date cooling degree days 267 176  
Since 1 June cooling degree days 220 157  
Growing Degree Days 26 (Base 50)    
Moisture  
Dew Point 69 °F    
Average Humidity 78    
Maximum Humidity 87    
Minimum Humidity 69    
Precipitation  
Precipitation 0.01 in 0.13 in 1.98 in (1989)
Month to date precipitation 3.14 1.33  
Year to date precipitation 28.27 17.33  
Snow  
Snow 0.00 in 0.00 in 0.00 in (2002)
Month to date snowfall 0.0 0.0  
Since 1 June snowfall 0.0 0.0  
Since 1 July snowfall 0.0 0.0  
Snow Depth 0.00 in    
Sea Level Pressure  
Sea Level Pressure 29.80 in    
Wind  
Wind Speed 11 mph (South)    
Max Wind Speed 22 mph    
Max Gust Speed 29 mph    
Visibility 10 miles    
Events Rain    
T = Trace of Precipitation, MM = Missing Value Source: NWS Daily Summary

Daily Weather History Graph

Daily Weather History Graph

Search for Another Location

Airport or City:

Trip Planner

Search our weather history database for the weather conditions in past years. The results will help you decide how hot, cold, wet, or windy it might be!

Date:

Astronomy

Jul. 10, 2013 Rise Set
Actual Time 5:18 AM EDT 8:37 PM EDT
Civil Twilight 4:42 AM EDT 9:13 PM EDT
Nautical Twilight 3:55 AM EDT 9:59 PM EDT
Astronomical Twilight 2:56 AM EDT 10:57 PM EDT
Moon 7:43 AM EDT (7/10) 9:37 PM EDT (7/10)
Length of Visible Light 16h 31m
Length of Day
15h 19m
Waxing Crescent, 5% of the Moon is Illuminated
Jul 10
Waxing Crescent
Jul 15
First Quarter
Jul 22
Full
Jul 29
Last Quarter
Aug 6
New

Hourly Weather History & Observations

Time (EDT) Temp. Heat Index Dew Point Humidity Pressure Visibility Wind Dir Wind Speed Gust Speed Precip Events Conditions
12:54 AM 73.9 °F - 66.9 °F 79% 29.95 in 10.0 mi SE 6.9 mph - N/A   Clear
1:54 AM 73.0 °F - 66.0 °F 79% 29.94 in 10.0 mi SE 5.8 mph - N/A   Clear
2:54 AM 73.9 °F - 66.0 °F 76% 29.92 in 10.0 mi Calm Calm - N/A   Partly Cloudy
3:54 AM 72.0 °F - 66.0 °F 81% 29.90 in 10.0 mi SSE 4.6 mph - N/A   Partly Cloudy
4:54 AM 72.0 °F - 66.9 °F 84% 29.90 in 10.0 mi WSW 3.5 mph - N/A   Mostly Cloudy
5:54 AM 73.0 °F - 66.9 °F 81% 29.89 in 10.0 mi South 4.6 mph - N/A   Mostly Cloudy
6:04 AM 73.4 °F - 66.2 °F 78% 29.89 in 10.0 mi SSW 4.6 mph - N/A   Mostly Cloudy
6:49 AM 73.4 °F - 66.2 °F 78% 29.89 in 10.0 mi South 8.1 mph - N/A   Overcast
6:54 AM 73.9 °F - 66.9 °F 79% 29.89 in 10.0 mi South 5.8 mph - N/A   Mostly Cloudy
7:39 AM 75.2 °F - 68.0 °F 78% 29.88 in 10.0 mi South 10.4 mph - N/A   Mostly Cloudy
7:49 AM 75.2 °F - 66.2 °F 73% 29.87 in 10.0 mi SSE 11.5 mph 17.3 mph N/A   Mostly Cloudy
7:54 AM 75.0 °F - 68.0 °F 79% 29.86 in 9.0 mi SSE 10.4 mph - 0.00 in Rain Light Rain
8:54 AM 77.0 °F - 68.0 °F 74% 29.86 in 10.0 mi South 15.0 mph 21.9 mph 0.00 in   Mostly Cloudy
9:54 AM 77.0 °F - 69.1 °F 76% 29.85 in 10.0 mi South 17.3 mph 21.9 mph N/A   Mostly Cloudy
10:54 AM 80.1 °F 82.9 °F 69.1 °F 69% 29.82 in 10.0 mi South 15.0 mph 27.6 mph N/A   Clear
11:54 AM 81.0 °F 84.1 °F 69.1 °F 67% 29.80 in 10.0 mi South 17.3 mph 23.0 mph N/A   Mostly Cloudy
12:54 PM 81.0 °F 84.4 °F 70.0 °F 69% 29.78 in 10.0 mi South 15.0 mph 27.6 mph N/A   Mostly Cloudy
1:54 PM 77.0 °F - 72.0 °F 84% 29.78 in 5.0 mi South 10.4 mph - 0.01 in Rain Light Rain
2:54 PM 80.1 °F 84.2 °F 73.0 °F 79% 29.75 in 10.0 mi South 17.3 mph 24.2 mph 0.00 in   Mostly Cloudy
3:20 PM 80.6 °F 84.6 °F 71.6 °F 74% 29.74 in 10.0 mi South 19.6 mph 27.6 mph N/A   Mostly Cloudy
3:31 PM 80.6 °F 84.6 °F 71.6 °F 74% 29.74 in 10.0 mi South 13.8 mph 26.5 mph N/A   Mostly Cloudy
3:54 PM 81.0 °F 85.2 °F 72.0 °F 74% 29.73 in 10.0 mi South 12.7 mph 24.2 mph N/A   Mostly Cloudy
4:54 PM 81.0 °F 84.9 °F 71.1 °F 72% 29.71 in 10.0 mi South 12.7 mph - N/A   Mostly Cloudy
5:54 PM 80.1 °F 83.8 °F 72.0 °F 76% 29.70 in 10.0 mi South 12.7 mph 21.9 mph N/A   Scattered Clouds
6:54 PM 81.0 °F 85.2 °F 72.0 °F 74% 29.71 in 10.0 mi South 16.1 mph 20.7 mph N/A   Scattered Clouds
7:54 PM 79.0 °F - 72.0 °F 79% 29.70 in 10.0 mi South 11.5 mph 17.3 mph N/A   Clear
8:54 PM 77.0 °F - 71.1 °F 82% 29.71 in 10.0 mi South 12.7 mph 21.9 mph N/A   Clear
9:54 PM 77.0 °F - 71.1 °F 82% 29.72 in 10.0 mi South 10.4 mph - N/A   Clear
10:54 PM 75.9 °F - 71.1 °F 85% 29.72 in 10.0 mi South 10.4 mph - N/A   Clear
11:54 PM 75.9 °F - 71.1 °F 85% 29.71 in 10.0 mi South 10.4 mph - N/A   Clear